GW7085 Weather Reports


time (UTC)temp
C
wind
direction
speed
KPH
gust
KPH
rain 1hr
cm
rain 24hr
cm
rain mn
cm
humidity
%
barometer
mb
20260906072505 22 27 0.0 0.0 0.00 0.00 0.00 90 1011.5
20260906072001 22 27 0.0 0.0 0.00 0.00 0.00 90 1011.5
20260906071457 22 27 0.0 0.0 0.00 0.00 0.00 89 1011.5
20260906070952 22 27 0.0 0.0 0.00 0.00 0.00 89 1011.7
20260906070448 22 27 0.0 0.0 0.00 0.00 0.00 89 1011.8
20260906065944 22 27 0.0 0.0 0.00 0.00 0.00 89 1011.8
20260906065443 23 27 0.0 0.0 0.00 0.00 0.00 88 1011.9
20260906064940 23 27 0.0 0.0 0.00 0.00 0.00 88 1011.9
20260906064436 23 27 0.0 0.0 0.00 0.00 0.00 88 1011.9
20260906063935 23 27 0.0 0.0 0.00 0.00 0.00 88 1011.7
20260906063431 23 27 0.0 0.0 0.00 0.00 0.00 87 1011.9
20260906062926 23 27 0.0 0.0 0.00 0.00 0.00 88 1012.2
20260906062426 23 27 0.0 0.0 0.00 0.00 0.00 87 1012.2
20260906061921 23 27 0.0 0.0 0.00 0.00 0.00 87 1012.4
20260906061418 23 27 0.0 0.0 0.00 0.00 0.00 87 1012.3
20260906060918 23 27 0.0 0.0 0.00 0.00 0.00 87 1012.4
20260906060415 23 27 0.0 0.0 0.00 0.00 0.00 87 1012.5
20260906055911 23 27 0.0 0.0 0.00 0.00 0.00 86 1012.4
20260906055407 23 27 0.0 0.0 0.00 0.00 0.00 86 1012.5
20260906054902 23 27 0.0 0.0 0.00 0.00 0.00 86 1012.5
20260906054356 23 27 0.0 0.0 0.00 0.00 0.00 85 1012.4
20260906053853 23 27 0.0 0.0 0.00 0.00 0.00 85 1012.4
20260906053348 23 27 0.0 0.0 0.00 0.00 0.00 85 1012.5
20260906052844 23 26 1.6 1.6 0.00 0.00 0.00 84 1012.6
20260906052340 23 30 0.0 1.6 0.00 0.00 0.00 85 1012.8
20260906051837 23 41 0.0 0.0 0.00 0.00 0.00 85 1013.0
20260906051336 23 41 0.0 0.0 0.00 0.00 0.00 85 1012.9
20260906050832 23 41 0.0 0.0 0.00 0.00 0.00 84 1012.9
20260906050327 23 41 0.0 0.0 0.00 0.00 0.00 83 1013.0
20260906045826 24 41 0.0 0.0 0.00 0.00 0.00 83 1012.9
20260906045320 24 41 0.0 1.6 0.00 0.00 0.00 82 1012.9
20260906044817 24 20 0.0 1.6 0.00 0.00 0.00 82 1012.9
20260906044317 24 302 0.0 1.6 0.00 0.00 0.00 82 1013.1
20260906043812 24 303 0.0 1.6 0.00 0.00 0.00 82 1012.8
20260906043309 24 317 1.6 3.2 0.00 0.00 0.00 82 1013.1
20260906042808 24 318 0.0 1.6 0.00 0.00 0.00 82 1012.9
20260906042307 24 319 0.0 1.6 0.00 0.00 0.00 82 1013.1
20260906041803 24 322 1.6 3.2 0.00 0.00 0.00 82 1013.2
20260906041258 23 39 1.6 1.6 0.00 0.00 0.00 82 1013.4
20260906040754 23 80 1.6 1.6 0.00 0.00 0.00 82 1013.2
20260906040249 23 102 0.0 1.6 0.00 0.00 0.00 82 1013.2
20260906035744 23 99 0.0 0.0 0.00 0.00 0.00 82 1013.3
20260906035240 23 100 1.6 1.6 0.00 0.00 0.00 82 1013.5
20260906034739 23 80 0.0 1.6 0.00 0.00 0.00 82 1013.3
20260906034234 23 81 0.0 0.0 0.00 0.00 0.00 82 1013.3
20260906033730 24 81 0.0 0.0 0.00 0.00 0.00 80 1013.5
20260906033230 24 81 0.0 1.6 0.00 0.00 0.00 80 1013.5
20260906032727 24 126 0.0 1.6 0.00 0.00 0.00 80 1013.5
20260906032226 24 126 0.0 1.6 0.00 0.00 0.00 80 1013.5
20260906031721 23 124 0.0 0.0 0.00 0.00 0.00 80 1013.4
20260906031217 24 122 0.0 0.0 0.00 0.00 0.00 80 1013.7
20260906030717 24 122 0.0 0.0 0.00 0.00 0.00 79 1013.4
20260906030212 24 122 0.0 1.6 0.00 0.00 0.00 79 1013.7
20260906025711 25 124 0.0 0.0 0.00 0.00 0.00 78 1013.3
20260906025206 25 125 0.0 0.0 0.00 0.00 0.00 77 1013.2
20260906024705 25 125 0.0 0.0 0.00 0.00 0.00 77 1013.1
20260906024204 25 122 1.6 3.2 0.00 0.00 0.00 77 1013.3
20260906023701 25 115 0.0 0.0 0.00 0.00 0.00 77 1012.9
20260906023201 25 115 0.0 0.0 0.00 0.00 0.00 77 1013.1
20260906022655 24 115 0.0 0.0 0.00 0.00 0.00 77 1013.1
20260906022151 24 115 0.0 0.0 0.00 0.00 0.00 77 1013.0
20260906021648 25 115 0.0 0.0 0.00 0.00 0.00 76 1013.1
20260906021146 25 115 0.0 0.0 0.00 0.00 0.00 75 1013.1
20260906020641 25 115 0.0 0.0 0.00 0.00 0.00 75 1012.8
20260906020136 25 115 0.0 0.0 0.00 0.00 0.00 74 1013.0
20260906015636 25 115 0.0 0.0 0.00 0.00 0.00 74 1013.2
20260906015134 25 115 0.0 0.0 0.00 0.00 0.00 74 1013.0
20260906014635 25 114 0.0 0.0 0.00 0.00 0.00 74 1012.9
20260906014131 25 114 0.0 0.0 0.00 0.00 0.00 73 1012.9
20260906013626 25 114 0.0 0.0 0.00 0.00 0.00 73 1013.1
20260906013122 25 115 0.0 0.0 0.00 0.00 0.00 74 1013.1
20260906012616 25 114 0.0 0.0 0.00 0.00 0.00 73 1013.0
20260906012116 25 114 0.0 0.0 0.00 0.00 0.00 71 1013.0
20260906011612 25 114 0.0 0.0 0.00 0.00 0.00 71 1012.8
20260906011113 25 114 0.0 0.0 0.00 0.00 0.00 70 1012.8
20260906010608 25 114 0.0 0.0 0.00 0.00 0.00 69 1012.8
20260906010104 25 114 0.0 0.0 0.00 0.00 0.00 69 1012.5
20260906005603 25 114 0.0 0.0 0.00 0.00 0.00 67 1012.9
20260906005103 25 114 0.0 0.0 0.00 0.00 0.00 67 1012.8
20260906004602 26 114 0.0 0.0 0.00 0.00 0.00 66 1012.8
20260906004057 26 115 0.0 0.0 0.00 0.00 0.00 65 1012.5
20260906003552 26 115 0.0 0.0 0.00 0.00 0.00 64 1012.5
20260906003048 26 115 0.0 0.0 0.00 0.00 0.00 64 1012.4
20260906002548 26 114 0.0 0.0 0.00 0.00 0.00 64 1012.5
20260906002043 26 114 0.0 0.0 0.00 0.00 0.00 63 1012.3
20260906001539 26 114 0.0 0.0 0.00 0.00 0.00 63 1012.4
20260906001039 26 114 0.0 0.0 0.00 0.00 0.00 62 1012.4
20260906000535 26 114 0.0 0.0 0.00 0.00 0.00 62 1012.5
20260906000030 27 115 0.0 0.0 0.00 0.00 0.00 61 1012.2
20260905235529 27 115 0.0 0.0 0.00 0.00 0.00 59 1012.2
20260905235025 27 114 0.0 0.0 0.00 0.00 0.00 58 1012.2
20260905234520 27 114 0.0 0.0 0.00 0.00 0.00 57 1012.0
20260905234020 28 114 0.0 0.0 0.00 0.00 0.00 56 1011.9
20260905233515 28 114 0.0 0.0 0.00 0.00 0.00 54 1011.8
20260905233015 28 116 0.0 1.6 0.00 0.00 0.00 53 1011.5
20260905232510 29 76 0.0 0.0 0.00 0.00 0.00 52 1011.7
20260905232006 30 54 0.0 0.0 0.00 0.00 0.00 50 1011.5
20260905231501 30 60 0.0 0.0 0.00 0.00 0.00 52 1011.4
20260905230958 30 59 0.0 1.6 0.00 0.00 0.00 51 1011.3
20260905230456 30 49 0.0 1.6 0.00 0.00 0.00 52 1011.4
20260905225954 30 49 1.6 1.6 0.00 0.00 0.00 54 1011.5
20260905225449 30 71 0.0 1.6 0.00 0.00 0.00 55 1011.5
20260905224944 29 85 0.0 1.6 0.00 0.00 0.00 58 1011.7
20260905224440 28 93 0.0 1.6 0.00 0.00 0.00 57 1011.4
20260905223939 28 304 1.6 3.2 0.00 0.00 0.00 56 1011.7
20260905223437 29 53 1.6 4.8 0.00 0.00 0.00 56 1011.4
20260905222932 29 74 0.0 1.6 0.00 0.00 0.00 56 1011.5
20260905222432 29 8 1.6 3.2 0.00 0.00 0.00 57 1011.3
20260905221927 29 53 0.0 1.6 0.00 0.00 0.00 57 1011.5
20260905221424 29 50 1.6 3.2 0.00 0.00 0.00 58 1011.4
20260905220920 29 36 0.0 1.6 0.00 0.00 0.00 58 1011.4
20260905220416 29 29 1.6 3.2 0.00 0.00 0.00 59 1011.5
20260905215914 29 56 0.0 1.6 0.00 0.00 0.00 60 1011.4
20260905215410 29 49 1.6 1.6 0.00 0.00 0.00 61 1011.8
20260905214907 29 309 1.6 1.6 0.00 0.00 0.00 60 1011.5
20260905214402 29 104 1.6 3.2 0.00 0.00 0.00 60 1011.8
20260905213856 28 268 3.2 3.2 0.00 0.00 0.00 61 1011.8
20260905213353 28 51 0.0 1.6 0.00 0.00 0.00 62 1011.8
20260905212853 28 12 0.0 1.6 0.00 0.00 0.00 62 1012.0
20260905212348 28 27 0.0 0.0 0.00 0.00 0.00 63 1011.9
20260905211847 28 27 0.0 1.6 0.00 0.00 0.00 62 1012.2
20260905211343 28 55 0.0 0.0 0.00 0.00 0.00 63 1012.5
20260905210840 28 68 0.0 0.0 0.00 0.00 0.00 63 1012.7
20260905210340 28 51 0.0 3.2 0.00 0.00 0.00 64 1012.8
20260905205838 28 311 3.2 4.8 0.00 0.00 0.00 63 1012.6
20260905205333 28 63 0.0 3.2 0.00 0.00 0.00 63 1012.5
20260905204832 28 275 3.2 4.8 0.00 0.00 0.00 62 1012.6
20260905204329 28 64 0.0 3.2 0.00 0.00 0.00 62 1012.7
20260905203827 28 62 1.6 3.2 0.00 0.00 0.00 61 1012.6
20260905203323 28 54 0.0 1.6 0.00 0.00 0.00 61 1012.2
20260905202819 28 55 0.0 3.2 0.00 0.00 0.00 59 1012.1
20260905202313 28 278 1.6 6.4 0.00 0.00 0.00 58 1012.1
20260905201809 28 54 1.6 3.2 0.00 0.00 0.00 59 1012.1
20260905201305 28 92 0.0 1.6 0.00 0.00 0.00 58 1012.1
20260905200804 28 60 1.6 4.8 0.00 0.00 0.00 58 1012.3
20260905200301 29 328 3.2 4.8 0.00 0.00 0.00 58 1012.5
20260905195758 29 55 0.0 3.2 0.00 0.00 0.00 58 1012.4
20260905195254 30 35 1.6 4.8 0.00 0.00 0.00 58 1012.6
20260905194749 30 62 1.6 1.6 0.00 0.00 0.00 57 1012.3
20260905194249 30 82 0.0 3.2 0.00 0.00 0.00 54 1012.1
20260905193748 31 28 3.2 4.8 0.00 0.00 0.00 53 1011.9
20260905193243 32 55 3.2 6.4 0.00 0.00 0.00 50 1011.7
20260905192738 32 38 1.6 3.2 0.00 0.00 0.00 47 1011.3
20260905192235 33 84 0.0 4.8 0.00 0.00 0.00 46 1011.5
20260905191734 34 63 0.0 1.6 0.00 0.00 0.00 45 1011.7
20260905191232 35 269 3.2 4.8 0.00 0.00 0.00 42 1011.3
20260905190731 36 51 1.6 3.2 0.00 0.00 0.00 42 1011.3
20260905190230 36 43 1.6 3.2 0.00 0.00 0.00 43 1011.2
20260905185730 36 237 1.6 4.8 0.00 0.00 0.00 41 1011.3
20260905185225 37 356 1.6 4.8 0.00 0.00 0.00 40 1011.7
20260905184719 36 71 0.0 1.6 0.00 0.00 0.00 38 1011.8
20260905184218 36 58 1.6 1.6 0.00 0.00 0.00 40 1011.9
20260905183718 36 131 1.6 4.8 0.00 0.00 0.00 43 1012.0
20260905183213 35 357 3.2 6.4 0.00 0.00 0.00 43 1012.2
20260905182713 35 56 3.2 3.2 0.00 0.00 0.00 43 1012.0
20260905182212 35 355 1.6 3.2 0.00 0.00 0.00 45 1012.0
20260905181708 35 277 1.6 3.2 0.00 0.00 0.00 46 1012.1
20260905181207 35 72 0.0 1.6 0.00 0.00 0.00 47 1012.1
20260905180701 35 110 0.0 1.6 0.00 0.00 0.00 45 1012.3
20260905180157 35 177 1.6 1.6 0.00 0.00 0.00 42 1012.6
20260905175656 35 53 0.0 3.2 0.00 0.00 0.00 46 1012.6
20260905175151 35 29 1.6 1.6 0.00 0.00 0.00 46 1012.8
20260905174647 36 55 1.6 3.2 0.00 0.00 0.00 45 1012.8
20260905174142 35 53 0.0 4.8 0.00 0.00 0.00 45 1012.9
20260905173638 35 294 0.0 3.2 0.00 0.00 0.00 47 1013.0
20260905173134 36 3 3.2 4.8 0.00 0.00 0.00 45 1013.3
20260905172632 36 194 1.6 1.6 0.00 0.00 0.00 47 1013.5
20260905172127 35 268 3.2 4.8 0.00 0.00 0.00 45 1013.4
20260905171624 36 242 3.2 4.8 0.00 0.00 0.00 46 1013.3
20260905171119 36 293 1.6 3.2 0.00 0.00 0.00 47 1013.5
20260905170616 36 227 1.6 3.2 0.00 0.00 0.00 49 1013.5
20260905170112 36 137 0.0 1.6 0.00 0.00 0.00 46 1013.7
20260905165611 35 129 0.0 3.2 0.00 0.00 0.00 47 1014.0
20260905165107 36 180 1.6 1.6 0.00 0.00 0.00 49 1013.8
20260905164602 35 71 0.0 1.6 0.00 0.00 0.00 46 1013.9
20260905164101 35 69 1.6 3.2 0.00 0.00 0.00 48 1014.0
20260905163558 35 88 0.0 1.6 0.00 0.00 0.00 53 1014.0
20260905163054 35 359 4.8 6.4 0.00 0.00 0.00 49 1014.1
20260905162550 35 51 1.6 1.6 0.00 0.00 0.00 51 1014.1
20260905162049 35 14 1.6 3.2 0.00 0.00 0.00 52 1014.3
20260905161549 35 191 1.6 3.2 0.00 0.00 0.00 52 1014.2
20260905161047 34 94 0.0 4.8 0.00 0.00 0.00 54 1014.3
20260905160545 35 359 1.6 4.8 0.00 0.00 0.00 54 1014.3
20260905160045 34 131 1.6 1.6 0.00 0.00 0.00 54 1014.3
20260905155545 34 6 1.6 4.8 0.00 0.00 0.00 55 1014.4
20260905155044 33 119 1.6 1.6 0.00 0.00 0.00 58 1014.5
20260905154539 33 29 1.6 3.2 0.00 0.00 0.00 57 1014.5
20260905154035 33 288 3.2 4.8 0.00 0.00 0.00 56 1014.5
20260905153530 33 151 1.6 1.6 0.00 0.00 0.00 57 1014.3
20260905153030 33 129 0.0 3.2 0.00 0.00 0.00 60 1014.5
20260905152525 33 142 1.6 1.6 0.00 0.00 0.00 57 1014.6
20260905152020 32 143 1.6 1.6 0.00 0.00 0.00 61 1014.6
20260905151515 32 302 3.2 4.8 0.00 0.00 0.00 62 1014.5
20260905151011 32 95 0.0 1.6 0.00 0.00 0.00 63 1014.6
20260905150506 32 92 0.0 1.6 0.00 0.00 0.00 64 1014.7
20260905150003 32 273 0.0 4.8 0.00 0.00 0.00 62 1014.6
20260905145457 32 39 1.6 1.6 0.00 0.00 0.00 63 1014.5
20260905144956 31 135 1.6 1.6 0.00 0.00 0.00 64 1014.7
20260905144452 31 54 1.6 3.2 0.00 0.00 0.00 64 1014.7
20260905143950 31 124 1.6 1.6 0.00 0.00 0.00 66 1014.6
20260905143449 31 59 1.6 1.6 0.00 0.00 0.00 65 1014.4
20260905142944 31 38 1.6 3.2 0.00 0.00 0.00 66 1014.7
20260905142443 30 261 0.0 4.8 0.00 0.00 0.00 68 1014.6
20260905141940 30 68 1.6 3.2 0.00 0.00 0.00 66 1014.5
20260905141439 30 50 1.6 4.8 0.00 0.00 0.00 68 1014.6
20260905140936 30 286 3.2 4.8 0.00 0.00 0.00 66 1014.9
20260905140431 30 142 0.0 1.6 0.00 0.00 0.00 68 1014.8
20260905135930 30 60 1.6 3.2 0.00 0.00 0.00 67 1014.7
20260905135425 30 123 0.0 0.0 0.00 0.00 0.00 69 1014.6
20260905134921 30 145 1.6 1.6 0.00 0.00 0.00 69 1014.5
20260905134420 28 97 0.0 1.6 0.00 0.00 0.00 71 1014.6
20260905133915 29 333 1.6 3.2 0.00 0.00 0.00 71 1014.6
20260905133415 29 117 0.0 1.6 0.00 0.00 0.00 71 1014.7
20260905132914 28 143 1.6 1.6 0.00 0.00 0.00 72 1014.8
20260905132409 28 83 0.0 1.6 0.00 0.00 0.00 74 1014.8
20260905131904 28 155 1.6 3.2 0.00 0.00 0.00 74 1014.9
20260905131400 27 11 1.6 3.2 0.00 0.00 0.00 74 1015.0
20260905130855 27 65 0.0 3.2 0.00 0.00 0.00 76 1015.0
20260905130354 27 118 1.6 1.6 0.00 0.00 0.00 74 1015.0
20260905125849 27 155 1.6 3.2 0.00 0.00 0.00 75 1015.3
20260905125344 27 122 0.0 1.6 0.00 0.00 0.00 77 1015.0
20260905124840 27 126 0.0 3.2 0.00 0.00 0.00 77 1015.2
20260905124336 27 124 0.0 1.6 0.00 0.00 0.00 78 1015.2
20260905123836 26 124 0.0 0.0 0.00 0.00 0.00 79 1015.1
20260905123333 26 185 1.6 1.6 0.00 0.00 0.00 80 1015.1
20260905122832 26 283 1.6 3.2 0.00 0.00 0.00 81 1015.0
20260905122332 26 23 1.6 1.6 0.00 0.00 0.00 81 1014.9
20260905121827 26 29 0.0 1.6 0.00 0.00 0.00 82 1015.0
20260905121324 25 255 0.0 1.6 0.00 0.00 0.00 83 1014.8
20260905120823 25 161 0.0 1.6 0.00 0.00 0.00 83 1014.8
20260905120323 25 161 0.0 0.0 0.00 0.00 0.00 84 1014.9
20260905115818 25 163 0.0 1.6 0.00 0.00 0.00 84 1015.0
20260905115317 25 165 0.0 3.2 0.00 0.00 0.00 84 1015.1
20260905114817 25 166 0.0 0.0 0.00 0.00 0.00 85 1014.8
20260905114316 25 166 0.0 0.0 0.00 0.00 0.00 85 1014.7
20260905113816 25 166 0.0 0.0 0.00 0.00 0.00 85 1014.6
20260905113312 25 165 0.0 1.6 0.00 0.00 0.00 86 1014.6
20260905112807 24 166 0.0 1.6 0.00 0.00 0.00 87 1014.6
20260905112305 24 165 0.0 0.0 0.00 0.00 0.00 87 1014.6
20260905111757 24 165 0.0 0.0 0.00 0.00 0.00 87 1014.4
20260905111257 24 165 0.0 0.0 0.00 0.00 0.00 87 1014.4
20260905110756 24 165 0.0 0.0 0.00 0.00 0.00 87 1014.1
20260905110250 24 165 0.0 0.0 0.00 0.00 0.00 87 1014.0
20260905105746 24 165 0.0 0.0 0.00 0.00 0.00 87 1014.0
20260905105245 23 165 0.0 0.0 0.00 0.00 0.00 87 1013.8
20260905104739 24 165 0.0 0.0 0.00 0.00 0.00 87 1013.8
20260905104236 24 165 0.0 0.0 0.00 0.00 0.00 86 1014.0
20260905103730 24 165 0.0 0.0 0.00 0.00 0.00 86 1013.7
20260905103226 24 165 0.0 0.0 0.00 0.00 0.00 86 1013.7
20260905102721 24 165 0.0 0.0 0.00 0.00 0.00 85 1013.7
20260905102218 24 165 0.0 0.0 0.00 0.00 0.00 85 1013.7
20260905101717 24 165 0.0 0.0 0.00 0.00 0.00 85 1013.6
20260905101215 25 165 0.0 0.0 0.00 0.00 0.00 84 1013.6
20260905100711 25 165 0.0 0.0 0.00 0.00 0.00 84 1013.5
20260905100206 25 165 0.0 0.0 0.00 0.00 0.00 83 1013.5
20260905095706 25 165 0.0 0.0 0.00 0.00 0.00 84 1013.2
20260905095201 25 165 0.0 0.0 0.00 0.00 0.00 84 1013.3
20260905094701 25 165 0.0 0.0 0.00 0.00 0.00 83 1013.5
20260905094200 25 165 0.0 0.0 0.00 0.00 0.00 83 1013.3
20260905093655 25 165 0.0 0.0 0.00 0.00 0.00 83 1013.5
20260905093151 25 165 0.0 0.0 0.00 0.00 0.00 83 1013.4
20260905092646 25 165 0.0 0.0 0.00 0.00 0.00 83 1013.5
20260905092142 25 165 0.0 0.0 0.00 0.00 0.00 82 1013.6
20260905091642 25 165 0.0 0.0 0.00 0.00 0.00 82 1013.4
20260905091141 25 165 0.0 0.0 0.00 0.00 0.00 81 1013.6
20260905090636 25 166 0.0 0.0 0.00 0.00 0.00 80 1013.4
20260905090132 25 166 0.0 0.0 0.00 0.00 0.00 80 1013.5
20260905085630 25 166 0.0 0.0 0.00 0.00 0.00 80 1013.6
20260905085126 25 165 0.0 0.0 0.00 0.00 0.00 79 1013.7
20260905084625 26 165 0.0 0.0 0.00 0.00 0.00 79 1013.6
20260905084121 26 165 0.0 0.0 0.00 0.00 0.00 78 1013.6
20260905083620 26 165 1.6 1.6 0.00 0.00 0.00 78 1013.7
20260905083117 26 165 0.0 1.6 0.00 0.00 0.00 78 1013.8
20260905082612 26 165 0.0 0.0 0.00 0.00 0.00 78 1013.9
20260905082108 26 165 0.0 0.0 0.00 0.00 0.00 77 1013.8
20260905081608 26 165 0.0 1.6 0.00 0.00 0.00 77 1013.9
20260905081103 26 165 1.6 1.6 0.00 0.00 0.00 77 1013.8
20260905080602 26 165 0.0 1.6 0.00 0.00 0.00 76 1014.1
20260905080052 26 165 1.6 1.6 0.00 0.00 0.00 76 1014.2
20260905075551 26 161 1.6 1.6 0.00 0.00 0.00 76 1014.2
20260905075050 26 157 0.0 1.6 0.00 0.00 0.00 76 1014.2
20260905074550 26 158 1.6 1.6 0.00 0.00 0.00 75 1014.1
20260905074046 26 122 0.0 1.6 0.00 0.00 0.00 76 1014.3
20260905073541 26 90 0.0 1.6 0.00 0.00 0.00 76 1014.2
20260905073037 26 77 0.0 0.0 0.00 0.00 0.00 75 1014.2